[[{"header":{"parameterUnit":"m.s-1","parameterCategory":1,"la1":30.2991,"la2":30.254,"lo1":-89.0895,"lo2":-89.0444,"dy":0.0017,"dx":0.0017,"nx":28,"ny":28,"refTime":"2025-04-23T03:00:00:Z","depth":0,"parameterNumber":2,"parameterNumberName":"U-component_of_WINDS"},"data":[0,0,0,0,0,0,0,0,0,0,0,0,0,0,0,0,0,0,0,0,0,0,0,0,0,0,0,0,0,0,0,0,0,0,0,0,0,0,0,0,0,0,0,0,0,0,0,0,0,0,0,0,0,0,0,0,0,0,-2.849,-2.8491,0,-2.855,-2.8551,-2.8551,-2.8517,-2.8515,-2.8514,-2.8512,-2.8571,-2.8574,-2.8578,0,0,0,0,0,0,0,0,0,0,0,0,0,-2.8347,-2.8349,-2.849,-2.8491,-2.8492,-2.855,-2.8551,-2.8552,-2.8517,-2.8515,-2.8513,-2.8511,-2.857,-2.8574,-2.8578,0,0,0,0,0,0,0,0,0,0,0,0,0,-2.8408,-2.835,-2.849,-2.8482,-2.8482,-2.855,-2.8551,-2.8552,-2.8518,-2.8515,-2.8513,-2.851,-2.8569,-2.8574,-2.8578,-2.8658,0,0,-2.8593,-2.8595,0,0,0,0,0,0,0,0,-2.8404,-2.8413,-2.8482,-2.8482,-2.8482,-2.8524,-2.8522,-2.8587,-2.8518,-2.8504,-2.8512,-2.8509,-2.8557,-2.8563,-2.858,-2.866,-2.8663,-2.8593,-2.8596,-2.8598,-2.8599,0,0,0,0,0,0,0,-2.84,-2.841,-2.8514,-2.8483,-2.8483,-2.8475,-2.8481,-2.8534,-2.8544,-2.8505,-2.8503,-2.851,-2.8557,-2.8575,-2.8581,-2.8664,-2.8593,-2.8597,-2.86,-2.8602,-2.8815,-2.8817,0,0,0,0,0,0,-2.8397,-2.8407,-2.8512,-2.8516,-2.8437,-2.848,-2.8486,-2.8513,-2.8543,-2.8546,-2.8512,-2.8509,-2.8568,-2.8575,-2.8583,-2.8678,-2.8598,-2.8602,-2.8605,-2.8812,-2.8815,-2.8818,0,0,0,0,0,0,-2.8394,-2.8406,-2.851,-2.8461,-2.8473,-2.8485,-2.8515,-2.8515,-2.8533,-2.8549,-2.855,-2.8529,-2.8567,-2.8576,-2.864,-2.868,-2.8604,-2.8609,-2.8809,-2.8813,-2.8817,-2.887,0,0,0,0,0,0,-2.839,-2.8405,-2.8435,-2.8462,-2.8476,-2.8566,-2.8517,-2.8518,-2.8542,-2.8537,-2.8565,-2.8567,-2.8565,-2.8633,-2.8645,-2.8685,-2.8612,-2.8805,-2.8811,-2.8816,-2.8864,-2.8875,-2.8884,0,0,0,0,0,-2.8385,-2.8447,-2.8437,-2.845,-2.8514,-2.8568,-2.8576,-2.8573,-2.8545,-2.8576,-2.8586,-2.8566,-2.8674,-2.864,-2.8652,-2.8695,-2.8802,-2.8809,-2.8815,-2.886,-2.8873,-2.8884,0,0,0,0,0,0,-2.8423,-2.845,-2.8439,-2.8512,-2.8538,-2.8562,-2.86,-2.8587,-2.8621,-2.8615,-2.861,-2.8617,-2.8683,-2.8696,-2.8657,-2.8774,-2.8734,-2.8743,-2.8763,-2.8776,-2.8786,-2.8781,-2.8616,0,0,0,0,0,-2.8441,-2.8483,-2.8504,-2.8566,-2.858,-2.8588,-2.8612,-2.8608,-2.8634,-2.8645,-2.8659,-2.8686,-2.8726,-2.8752,-2.8789,-2.8867,-2.8873,-2.8902,-2.8913,-2.8921,-2.8928,-2.8972,-2.8985,-2.8839,-2.8839,-2.8839,0,0,-2.8476,-2.8496,-2.8523,-2.8575,-2.8594,-2.8638,-2.8597,-2.8645,-2.8678,-2.8652,-2.8713,-2.8725,-2.8754,-2.8826,-2.8858,-2.8838,-2.897,-2.8929,-2.8935,-2.8938,-2.898,-2.8993,-2.9006,-2.8844,-2.8843,-2.8842,0,0,-2.8563,-2.8583,-2.8637,-2.8659,-2.869,-2.8695,-2.8709,-2.8735,-2.8743,-2.8805,-2.8787,-2.8826,-2.8894,-2.8916,-2.8936,-2.9036,-2.9019,-2.9048,-2.91,-2.9142,-2.9154,-2.9164,-2.92,-2.9213,-2.9056,-2.9056,-2.9056,0,-2.8603,-2.8669,-2.8667,-2.8717,-2.874,-2.8721,-2.8776,-2.8797,-2.8839,-2.8855,-2.8833,-2.892,-2.8938,-2.9015,-2.904,-2.9057,-2.9072,-2.9044,-2.9153,-2.9163,-2.9172,-2.9206,-2.922,-2.9059,-2.9059,-2.9059,-2.9058,0,-2.8717,-2.8763,-2.8803,-2.8845,-2.8874,-2.8926,-2.8932,-2.8962,-2.8956,-2.8964,-2.9029,-2.9051,-2.9093,-2.9111,-2.9105,-2.9188,-2.9175,-2.9153,-2.9112,-2.9189,-2.9221,-2.9234,-2.9064,-2.9063,-2.9062,-2.9061,0,0,-2.8827,-2.887,-2.8884,-2.8904,-2.8939,-2.8974,-2.9027,-2.9069,-2.9095,-2.9125,-2.9169,-2.9229,-2.921,-2.9233,-2.923,-2.9267,-2.9346,-2.9241,-2.9241,-2.9259,-2.9439,-2.9455,-2.947,-2.9336,-2.9338,-2.934,-2.9437,0,-2.8916,-2.9008,-2.9009,-2.9093,-2.9137,-2.9121,-2.9166,-2.9193,-2.9203,-2.9241,-2.9252,-2.9295,-2.9266,-2.928,-2.9316,-2.9328,-2.9382,-2.9322,-2.9376,-2.9378,-2.9369,-2.9487,-2.9503,-2.9593,-2.9449,-2.9451,-2.9453,0,-2.9031,-2.9067,-2.9156,-2.9187,-2.9205,-2.9246,-2.9286,-2.9323,-2.9354,-2.9358,-2.9386,-2.9378,-2.9432,-2.9392,-2.9466,-2.9426,-2.9449,-2.9459,-2.9462,-2.9466,-2.9419,-2.9493,-2.9621,-2.9635,-2.9472,-2.9471,-2.9469,0,-2.9103,-2.9173,-2.9236,-2.9254,-2.9291,-2.932,-2.9337,-2.9365,-2.9391,-2.9427,-2.9444,-2.9485,-2.9508,-2.954,-2.9544,-2.9514,-2.962,-2.9579,-2.9625,-2.9625,-2.9647,-2.9645,-2.978,-2.9663,-2.9663,-2.9663,-2.9663,0,-2.9202,-2.9257,-2.9269,-2.9308,-2.937,-2.9371,-2.9433,-2.9447,-2.9473,-2.9514,-2.9503,-2.9542,-2.9546,-2.9586,-2.959,-2.9652,-2.9662,-2.9668,-2.9668,-2.9668,-2.9668,-2.9682,-2.9676,-2.9667,-2.9666,-2.9665,-2.9664,0,-2.9291,-2.9302,-2.9369,-2.94,-2.9409,-2.9453,-2.948,-2.9517,-2.9527,-2.958,-2.9592,-2.9608,-2.9655,-2.9664,-2.9719,-2.9722,-2.9796,-2.979,-2.9786,-2.9785,-2.9831,-2.9826,-2.9978,-2.9999,-2.987,-2.9871,-2.9872,0,-2.9353,-2.9395,-2.9431,-2.9459,-2.9478,-2.9522,-2.9549,-2.9554,-2.9583,-2.9622,-2.9655,-2.9702,-2.9739,-2.9816,-2.9832,-2.9875,-2.987,-2.9921,-2.9876,-2.9876,-2.9871,-2.9868,-2.9872,-2.9928,-2.993,-2.9931,-2.9932,0,-2.9462,-2.9466,-2.9506,-2.9549,-2.9583,-2.9616,-2.9648,-2.9672,-2.968,-2.9714,-2.9763,-2.9792,-2.985,-2.9897,-2.994,-2.9958,-2.9947,-2.9946,-2.9959,-2.996,-2.9955,-2.9958,-2.9808,-2.9942,-2.9941,-2.994,-2.994,-2.9939,-2.9539,-2.9577,-2.9608,-2.9654,-2.968,-2.971,-2.9748,-2.9763,-2.9805,-2.9853,-2.9853,-2.9907,-2.9939,-2.9996,-3.0017,-3.0059,-3.0043,-3.0062,-3.0066,-3.0071,-3.0075,-2.995,-3.0067,-3.0067,-3.0067,-3.0067,-3.0066,0,-2.9647,-2.9668,-2.971,-2.9756,-2.9793,-2.9781,-2.9817,-2.9848,-2.9896,-2.9927,-2.9965,-3.0022,-3.0068,-3.009,-3.0135,-3.0166,-3.0162,-3.0177,-3.0175,-3.0179,-3.0087,-3.0071,-3.018,-3.018,-3.018,-3.018,-3.018,-3.018,-2.9707,-2.9771,-2.9779,-2.9855,-2.9876,-2.9929,-2.9951,-2.998,-3.0004,-3.0069,-3.0108,-3.0122,-3.015,-3.0198,-3.024,-3.0245,-3.0262,-3.028,-3.0283,-3.0197,-3.0185,-3.0174,-3.0159,-3.0284,-3.0284,-3.0371,-3.0372,-3.0373]},{"header":{"parameterUnit":"m.s-1","parameterCategory":1,"la1":30.2991,"la2":30.254,"lo1":-89.0895,"lo2":-89.0444,"dy":0.0017,"dx":0.0017,"nx":28,"ny":28,"refTime":"2025-04-23T03:00:00:Z","depth":0,"parameterNumber":3,"parameterNumberName":"V-component_of_WINDS"},"data":[0,0,0,0,0,0,0,0,0,0,0,0,0,0,0,0,0,0,0,0,0,0,0,0,0,0,0,0,0,0,0,0,0,0,0,0,0,0,0,0,0,0,0,0,0,0,0,0,0,0,0,0,0,0,0,0,0,0,3.2597,3.2597,0,3.2623,3.2624,3.2624,3.2686,3.2688,3.2689,3.269,3.2713,3.2713,3.2712,0,0,0,0,0,0,0,0,0,0,0,0,0,3.2601,3.26,3.2597,3.2597,3.2598,3.2623,3.2624,3.2624,3.2686,3.2688,3.2689,3.2691,3.2714,3.2713,3.2712,0,0,0,0,0,0,0,0,0,0,0,0,0,3.261,3.26,3.2597,3.2632,3.2635,3.2623,3.2624,3.2624,3.2686,3.2688,3.269,3.2691,3.2714,3.2713,3.2712,3.2667,0,0,3.2709,3.2709,0,0,0,0,0,0,0,0,3.261,3.261,3.2626,3.263,3.2633,3.2654,3.2634,3.2638,3.2685,3.2666,3.269,3.2692,3.2692,3.2693,3.2693,3.2668,3.2669,3.2709,3.2709,3.2708,3.2708,0,0,0,0,0,0,0,3.2609,3.2609,3.2607,3.2627,3.2631,3.2646,3.265,3.2635,3.2667,3.2668,3.2673,3.2675,3.2694,3.2694,3.2694,3.267,3.2709,3.2708,3.2708,3.2707,3.2613,3.2612,0,0,0,0,0,0,3.2603,3.2608,3.2607,3.2608,3.2626,3.2645,3.2648,3.2645,3.2668,3.2673,3.2674,3.2678,3.2694,3.2695,3.2695,3.2647,3.2708,3.2707,3.2707,3.2615,3.2613,3.2611,0,0,0,0,0,0,3.2603,3.2603,3.2606,3.261,3.2611,3.2642,3.2638,3.2644,3.2645,3.2672,3.2678,3.2667,3.2696,3.2696,3.2675,3.2648,3.2707,3.2706,3.2618,3.2615,3.2612,3.2547,0,0,0,0,0,0,3.2603,3.2602,3.2585,3.2609,3.2611,3.2584,3.2636,3.2644,3.2643,3.2649,3.2668,3.2673,3.2698,3.2676,3.2674,3.2648,3.2705,3.262,3.2616,3.2613,3.2552,3.2542,3.2534,0,0,0,0,0,3.2603,3.2564,3.2584,3.2583,3.259,3.2583,3.2584,3.2614,3.2641,3.2624,3.2643,3.2672,3.2652,3.2673,3.2671,3.2645,3.2622,3.2617,3.2613,3.2556,3.2544,3.2534,0,0,0,0,0,0,3.2534,3.2568,3.259,3.2558,3.2567,3.2593,3.2573,3.26,3.2601,3.2607,3.2643,3.2647,3.2621,3.2631,3.2654,3.2605,3.2642,3.2637,3.2599,3.2588,3.2579,3.2577,3.2705,0,0,0,0,0,3.2516,3.2507,3.2537,3.2506,3.251,3.254,3.2538,3.2561,3.2572,3.2576,3.2592,3.2601,3.2597,3.2593,3.2591,3.2554,3.256,3.2535,3.2527,3.2519,3.2514,3.2499,3.2489,3.2596,3.2596,3.2596,0,0,3.2476,3.2494,3.2486,3.2492,3.2502,3.2493,3.2543,3.253,3.2524,3.2573,3.2555,3.2568,3.258,3.2552,3.254,3.2559,3.2487,3.2514,3.2508,3.2507,3.2493,3.2483,3.2474,3.2593,3.2594,3.2594,0,0,3.24,3.2412,3.2389,3.2399,3.2415,3.2436,3.2431,3.2454,3.2465,3.2447,3.2485,3.2479,3.247,3.2478,3.2481,3.2414,3.2442,3.2412,3.2366,3.235,3.2342,3.2334,3.2312,3.2303,3.2407,3.2407,3.2407,0,3.2349,3.2337,3.2373,3.2359,3.2362,3.2409,3.2387,3.2395,3.2408,3.2409,3.2431,3.2424,3.2435,3.2411,3.2395,3.2395,3.2391,3.2409,3.234,3.2333,3.2327,3.2306,3.2297,3.2403,3.2404,3.2404,3.2405,0,3.2274,3.2266,3.2245,3.226,3.2261,3.2242,3.2276,3.2272,3.2297,3.2316,3.2299,3.2316,3.2319,3.2315,3.2337,3.2295,3.2307,3.2334,3.2372,3.2312,3.2293,3.2285,3.2398,3.2399,3.2401,3.2401,0,0,3.2152,3.2191,3.2182,3.2191,3.2214,3.2208,3.2193,3.2199,3.2195,3.2204,3.2193,3.2187,3.2214,3.2218,3.2242,3.2228,3.2177,3.2258,3.2259,3.2243,3.2133,3.2113,3.2103,3.2196,3.2195,3.2194,3.2133,0,3.2082,3.2059,3.2093,3.2063,3.2057,3.2104,3.2091,3.2104,3.2123,3.2121,3.2142,3.2138,3.2173,3.2176,3.2164,3.2185,3.2155,3.219,3.2187,3.2186,3.2182,3.2092,3.207,3.2011,3.2125,3.2124,3.2123,0,3.1995,3.2003,3.1973,3.2002,3.2,3.1988,3.1998,3.1995,3.2012,3.2027,3.2033,3.2063,3.2052,3.209,3.2076,3.2099,3.21,3.211,3.2109,3.2109,3.215,3.2091,3.1993,3.1984,3.2112,3.2112,3.2113,0,3.1911,3.1913,3.1897,3.1903,3.1935,3.1926,3.1939,3.1958,3.1961,3.1969,3.1971,3.1977,3.198,3.1985,3.2017,3.2041,3.1999,3.2039,3.2012,3.2011,3.2,3.2,3.1901,3.2,3.2,3.2,3.2001,0,3.1828,3.1808,3.186,3.1849,3.1829,3.1869,3.1848,3.1866,3.1883,3.1878,3.1919,3.1912,3.1955,3.1954,3.1978,3.1964,3.1965,3.1977,3.1984,3.1973,3.1972,3.1974,3.1979,3.1998,3.1999,3.1999,3.1999,0,3.1729,3.1763,3.1748,3.1782,3.179,3.1774,3.1803,3.1795,3.1819,3.1811,3.1812,3.1848,3.1849,3.1882,3.1889,3.1906,3.1882,3.1896,3.1876,3.1881,3.1852,3.1855,3.1751,3.174,3.1846,3.1845,3.1844,0,3.1674,3.1661,3.1694,3.1694,3.1706,3.1705,3.1709,3.1749,3.1751,3.1772,3.1762,3.1768,3.1774,3.1774,3.18,3.1807,3.1822,3.1786,3.1823,3.1814,3.1823,3.1823,3.1823,3.1777,3.1776,3.1775,3.1774,0,3.1573,3.1592,3.1596,3.1607,3.1611,3.1621,3.1634,3.1632,3.1677,3.1677,3.168,3.1685,3.1695,3.17,3.1713,3.1726,3.1758,3.1762,3.1757,3.1745,3.1735,3.1742,3.1855,3.1764,3.1765,3.1766,3.1766,3.1766,3.1495,3.1487,3.151,3.1515,3.1529,3.1541,3.1537,3.1562,3.1565,3.1577,3.1601,3.1601,3.1622,3.1642,3.1654,3.1655,3.1674,3.1665,3.1663,3.166,3.1655,3.1736,3.1657,3.1658,3.1658,3.1658,3.1658,0,3.1398,3.1417,3.142,3.1439,3.1443,3.1475,3.1492,3.1493,3.1493,3.151,3.1517,3.1522,3.1528,3.1557,3.1567,3.1562,3.1577,3.1563,3.1564,3.1567,3.1637,3.1641,3.1552,3.1552,3.1552,3.1552,3.1552,3.1552,3.1347,3.1335,3.1357,3.1354,3.1373,3.1374,3.1381,3.1394,3.1408,3.1413,3.1419,3.1439,3.1462,3.1474,3.1482,3.1491,3.1493,3.1474,3.1488,3.1552,3.1562,3.1572,3.1576,3.1474,3.1474,3.1418,3.1418,3.1417]}]]